OH2TI Weather Reports


Display with metric or nautical units.
time (UTC)temp
F
wind
direction
speed
MPH
gust
MPH
rain 1hr
in
rain 24hr
in
rain mn
in
humidity
%
barometer
mb
20260506072312 48 315 6.0 10.0 0.00 0.00 0.00 43 1009.3
20260506070954 46 313 5.0 10.0 0.00 0.00 0.00 46 1009.2
20260506061919 45 291 3.0 5.0 0.00 0.00 0.00 54 1009.0
20260506060519 44 283 4.0 8.0 0.00 0.00 0.00 56 1008.8
20260506051134 41 315 6.0 10.0 0.00 0.00 0.00 65 1008.2
20260506044236 40 300 3.0 7.0 0.00 0.00 0.00 70 1007.8
20260506043319 39 309 5.0 10.0 0.00 0.00 0.00 70 1007.8
20260506041934 39 313 3.0 6.0 0.00 0.00 0.00 72 1007.7
20260506040604 38 313 2.0 7.0 0.00 0.00 0.00 73 1007.5
20260506040021 38 299 3.0 6.0 0.00 0.00 0.00 74 1007.5
20260506034702 37 298 3.0 5.0 0.00 0.00 0.00 76 1007.3
20260506033332 36 304 3.0 6.0 0.00 0.00 0.00 77 1007.2
20260506032449 36 271 2.0 5.0 0.00 0.00 0.00 77 1007.1
20260506031302 36 312 2.0 5.0 0.00 0.00 0.00 77 1007.0
20260506030032 35 274 2.0 4.0 0.00 0.00 0.00 78 1006.9
20260506025219 35 265 3.0 6.0 0.00 0.00 0.00 78 1006.8
20260506023842 34 266 3.0 6.0 0.00 0.00 0.00 79 1006.6
20260506023044 34 284 1.0 3.0 0.00 0.00 0.00 80 1006.6
20260506022344 34 276 1.0 3.0 0.00 0.00 0.00 80 1006.5
20260506021509 34 256 2.0 3.0 0.00 0.00 0.00 80 1006.5
20260506020936 34 268 1.0 2.0 0.00 0.00 0.00 80 1006.4
20260506015734 34 267 1.0 2.0 0.00 0.00 0.00 79 1006.2
20260506014729 34 295 1.0 3.0 0.00 0.00 0.00 79 1006.2
20260506013939 35 311 2.0 4.0 0.00 0.00 0.00 79 1006.2
20260506013224 35 307 3.0 6.0 0.00 0.00 0.00 79 1006.1
20260506012229 35 302 1.0 4.0 0.00 0.00 0.00 79 1006.1
20260506010906 35 280 1.0 2.0 0.00 0.00 0.00 78 1006.0
20260506010019 35 281 1.0 2.0 0.00 0.00 0.00 77 1006.0
20260506004549 35 280 2.0 4.0 0.00 0.00 0.00 77 1005.8
20260506003919 35 277 2.0 3.0 0.00 0.00 0.00 76 1005.7
20260506003149 35 305 2.0 5.0 0.00 0.00 0.00 76 1005.7
20260506002212 36 312 2.0 4.0 0.00 0.00 0.00 76 1005.6
20260506000739 36 304 3.0 6.0 0.00 0.00 0.00 75 1005.6
20260506000106 36 286 2.0 4.0 0.00 0.00 0.00 75 1005.6
20260505235519 36 292 2.0 4.0 0.00 0.00 0.00 75 1005.5
20260505234402 36 274 2.0 5.0 0.00 0.00 0.00 74 1005.5
20260505233809 37 285 2.0 6.0 0.00 0.00 0.00 74 1005.5
20260505232619 37 268 3.0 5.0 0.00 0.00 0.00 73 1005.4
20260505231659 37 266 3.0 5.0 0.00 0.00 0.00 72 1005.3
20260505231134 37 309 3.0 5.0 0.00 0.00 0.00 72 1005.3
20260505230359 37 284 3.0 6.0 0.00 0.00 0.00 72 1005.2
20260505225829 37 274 3.0 5.0 0.00 0.00 0.00 72 1005.2
20260505224332 38 297 2.0 5.0 0.00 0.00 0.00 71 1005.0
20260505222949 38 294 3.0 6.0 0.00 0.00 0.00 70 1004.9
20260505222122 38 305 3.0 6.0 0.00 0.00 0.00 70 1004.9
20260505220821 38 284 3.0 7.0 0.00 0.00 0.00 69 1004.8
20260505215502 39 287 3.0 10.0 0.00 0.00 0.00 68 1004.8
20260505214249 39 279 3.0 7.0 0.00 0.00 0.00 66 1004.8
20260505212814 39 255 4.0 8.0 0.00 0.00 0.00 65 1004.6
20260505212032 40 268 3.0 7.0 0.00 0.00 0.00 64 1004.5
20260505211421 40 271 3.0 8.0 0.00 0.00 0.00 63 1004.5
20260505210829 40 274 3.0 6.0 0.00 0.00 0.00 63 1004.5
20260505205912 40 264 3.0 6.0 0.00 0.00 0.00 62 1004.4
20260505204712 40 275 3.0 7.0 0.00 0.00 0.00 61 1004.3
20260505203914 41 285 2.0 5.0 0.00 0.00 0.00 61 1004.1
20260505202622 41 285 4.0 6.0 0.00 0.00 0.00 59 1003.9
20260505201449 41 275 2.0 5.0 0.00 0.00 0.00 59 1003.9
20260505200551 42 293 2.0 6.0 0.00 0.00 0.00 58 1003.8
20260505195129 42 290 3.0 8.0 0.00 0.00 0.00 55 1003.7
20260505193949 42 277 5.0 11.0 0.00 0.00 0.00 53 1003.6
20260505192959 43 273 4.0 8.0 0.00 0.00 0.00 51 1003.6
20260505191842 43 270 4.0 10.0 0.00 0.00 0.00 48 1003.5
20260505190912 44 268 3.0 8.0 0.00 0.00 0.00 47 1003.4
20260505190004 44 275 4.0 8.0 0.00 0.00 0.00 46 1003.3
20260505185305 44 269 4.0 9.0 0.00 0.00 0.00 45 1003.3
20260505184714 44 277 4.0 8.0 0.00 0.00 0.00 45 1003.2
20260505184129 45 284 5.0 10.0 0.00 0.00 0.00 44 1003.2
20260505183249 45 263 6.0 12.0 0.00 0.00 0.00 43 1003.0
20260505182214 45 274 4.0 12.0 0.00 0.00 0.00 43 1002.9
20260505181109 46 263 2.0 5.0 0.00 0.00 0.00 43 1002.8
20260505175919 46 296 4.0 12.0 0.00 0.00 0.00 41 1002.7
20260505175319 47 261 5.0 14.0 0.00 0.00 0.00 41 1002.7
20260505174404 47 294 6.0 11.0 0.00 0.00 0.00 41 1002.6
20260505173222 47 271 4.0 7.0 0.00 0.00 0.00 41 1002.5
20260505172306 48 258 3.0 12.0 0.00 0.00 0.00 40 1002.5
20260505171051 48 279 6.0 13.0 0.00 0.00 0.00 40 1002.4
20260505170232 48 285 5.0 11.0 0.00 0.00 0.00 40 1002.4
20260505164802 49 273 8.0 16.0 0.00 0.00 0.00 39 1002.2
20260505164122 49 269 8.0 14.0 0.00 0.00 0.00 38 1002.2
20260505162634 50 302 5.0 12.0 0.00 0.00 0.00 37 1002.3
20260505161829 50 258 5.0 11.0 0.00 0.00 0.00 34 1002.2
20260505161209 50 296 6.0 11.0 0.00 0.00 0.00 32 1002.0
20260505160521 51 294 8.0 20.0 0.00 0.00 0.00 30 1002.1
20260505152909 53 282 6.0 15.0 0.00 0.00 0.00 34 1002.0
20260505151421 53 270 5.0 12.0 0.00 0.00 0.00 31 1001.7
20260505150342 52 271 5.0 13.0 0.00 0.00 0.00 32 1001.7
20260505140129 54 270 6.0 14.0 0.00 0.00 0.00 33 1001.5
20260505124039 51 299 5.0 11.0 0.00 0.00 0.00 45 1001.1
20260505123151 51 288 4.0 11.0 0.00 0.00 0.00 48 1001.0
20260505121832 51 315 7.0 14.0 0.00 0.00 0.00 46 1001.0
20260505120819 53 286 4.0 10.0 0.00 0.00 0.00 41 1000.8
20260505115832 53 296 7.0 14.0 0.00 0.00 0.00 39 1000.8
20260505114806 53 309 7.0 13.0 0.00 0.00 0.00 44 1000.6
20260505113421 52 325 12.0 20.0 0.00 0.00 0.00 43 1000.3
20260505112519 54 306 9.0 20.0 0.00 0.00 0.00 40 1000.2
20260505111522 53 288 5.0 10.0 0.00 0.00 0.00 41 1000.2
20260505110239 52 312 8.0 19.0 0.00 0.00 0.00 46 1000.1
20260505101614 52 313 8.0 16.0 0.00 0.00 0.00 47 999.3
20260505100854 54 316 7.0 15.0 0.00 0.00 0.00 46 999.2
20260505095654 53 304 9.0 19.0 0.00 0.00 0.00 46 999.0
20260505094549 52 301 10.0 25.0 0.00 0.00 0.00 51 998.9
20260505093924 52 304 6.0 13.0 0.00 0.00 0.00 52 998.8
20260505092809 54 263 3.0 8.0 0.00 0.00 0.00 51 998.7
20260505091554 52 312 5.0 11.0 0.00 0.00 0.00 56 998.5
20260505090859 51 240 2.0 9.0 0.00 0.00 0.00 65 998.6
20260505090349 52 201 6.0 14.0 0.00 0.00 0.00 62 998.2
20260505085736 53 189 10.0 21.0 0.00 0.00 0.00 60 998.0
20260505084951 52 184 10.0 19.0 0.00 0.00 0.00 60 997.9
20260505084236 53 185 7.0 14.0 0.00 0.00 0.00 60 998.0
20260505083251 53 193 10.0 19.0 0.00 0.00 0.00 61 997.9
20260505082412 53 191 8.0 16.0 0.00 0.00 0.00 60 997.9
20260505081739 52 201 7.0 14.0 0.00 0.00 0.00 63 997.9
20260505080732 51 201 7.0 13.0 0.00 0.00 0.00 65 998.0
20260505075609 51 204 7.0 13.0 0.00 0.00 0.00 65 997.9
20260505074536 51 192 5.0 12.0 0.00 0.00 0.00 64 997.8
20260505073221 53 253 3.0 10.0 0.00 0.00 0.00 57 997.7